Regional Weather Roundup
Issued by NWS Charleston, SC

Current Version | Previous Version | Graphics & Text | Print | Product List | Glossary On
Versions: 1 2 3 4 5 6 7 8 9 10 11 12 13 14 15 16 17 18 19 20 21 22 23 24 25 26 27 28 29 30 31 32 33 34 35 36 37 38 39 40 41 42 43 44 45 46 47 48 49 50
000 ASUS42 KCHS 282126 RWRCHS REGIONAL WEATHER ROUNDUP NATIONAL WEATHER SERVICE CHARLESTON SC 400 PM EST WED JAN 28 2015 NOTE: "FAIR" INDICATES FEW OR NO CLOUDS BELOW 12,000 FEET WITH NO SIGNIFICANT WEATHER AND/OR OBSTRUCTIONS TO VISIBILITY. NOT ALL STATIONS ARE QUALITY CONTROLLED BY THE NATIONAL WEATHER SERVICE. USE DATA WITH CAUTION...ESPECIALLY DEWPOINT OBSERVATIONS. SCZ027-030-031-034>040-042>050-282200- ...SOUTHEAST SOUTH CAROLINA... CITY SKY/WX TMP DP RH WIND PRES REMARKS N CHARLESTON SUNNY 49 20 31 N13 30.25R WATERFRONT PRK N/A 46 N/A N/A N9G17 N/A MOUNT PLEASANT FAIR N/A N/A N/A CALM 30.24R PINOPOLIS NOT AVBL MONCKS CORNER FAIR 48 21 34 N5 30.25S SUMMERVILLE NOT AVBL BEAUFORT MCAS SUNNY 50 22 33 N7 30.25S BEAUFORT ARPT FAIR 50 27 40 N10 30.25S HILTON HEAD IS SUNNY N/A N/A N/A N9 30.25F WALTERBORO CLEAR 50 12 22 N7 30.26R ALLENDALE FAIR 52 18 25 N8 30.25R ...SOUTHERN MIDLANDS AND PEE DEE... CITY SKY/WX TMP DP RH WIND PRES REMARKS GEORGETOWN NOT AVBL KINGSTREE NOT AVBL ORANGEBURG SUNNY 50 17 27 N8 30.25R BARNWELL FAIR 52 19 28 NE7 30.26R AIKEN FAIR 50 21 32 NW5 30.27R MANNING FAIR 50 21 32 N5 30.25R COLUMBIA SUNNY 51 20 29 N6 30.24S SUMTER SUNNY 49 19 31 NW5 30.23R FLORENCE SUNNY 48 19 31 N12 30.24R MYRTLE BEACH SUNNY 46 14 27 N14 30.24R N MYRTLE BEACH SUNNY 47 16 29 N10G17 30.22R $$ GAZ063-065-086>088-099>101-113>116-118-119-134>141-150-282200- ...SOUTHEAST GEORGIA... CITY SKY/WX TMP DP RH WIND PRES REMARKS SAVANNAH ARPT SUNNY 53 17 24 N7 30.25R HUNTER AAF SUNNY 53 19 26 NW10 30.23R FORT STEWART SUNNY 54 22 28 VRB6 30.24R STATESBORO SUNNY 52 24 33 NW7 30.25S SYLVANIA CLEAR 51 23 33 N8 30.26R CLAXTON FAIR 52 28 40 NW7 30.26R ...CSRA...CENTRAL AND FAR SOUTHEAST GEORGIA... CITY SKY/WX TMP DP RH WIND PRES REMARKS THOMSON SUNNY 55 26 32 N5 30.28R AUGUSTA-BUSH SUNNY 53 13 20 N7 30.24S AUGUSTA-DANIEL NOT AVBL SWAINSBORO FAIR 54 -15 5 NE5 30.25S VIDALIA SUNNY 54 27 35 N8 30.25R EASTMAN FAIR 55 29 38 N5 30.27R HAZLEHURST FAIR 55 26 32 N7 30.23S ALMA SUNNY 55 25 31 NW6 30.24R WAYCROSS SUNNY 57 31 37 NE7 30.24S JESUP FAIR 55 30 38 N7 30.25R BAXLEY FAIR 55 28 35 NE6 30.24S BRUNSWICK SUNNY 55 21 26 N5 30.25R SAINT SIMONS SUNNY 50 29 44 E7 30.25R $$ SCZ027-028-034-036>038-045-046-048>050-GAZ119-141-282200- ...LAKE AND SUPPLEMENTAL COASTAL OBSERVATIONS... STATION/POSITION TIME TEMP WIND PRES WAVE SWELL AIR SEA DIR/SP/G HT/PER HT/PER/DIR (UTC) (F) (DEG/KT/KT) (MB) (FT/S) (FT/S/D) UPR LAKE MARION NOT AVBL WINYAH BAY 2000 46 340/ 7 1022.0S LAKE MURRAY 2000 48 CALM / 4 1023.4S ACE BASIN NERRS 2045 48 10/ 4 1024.0S FORT PULASKI 2100 50 52 320/ 8/ 11 1024.7R SAPELO ISLAND 2100 54 360/ 5 1024.0S $$ ANZ835-935-AMZ111-154-330-350-352-354-370-450-454-472-282200- ...C-MAN AND BUOY OBSERVATIONS... STATION/POSITION TIME TEMP WIND PRES WAVE SWELL AIR SEA DIR/SP/G HT/PER HT/PER/DIR (UTC) (F) (DEG/KT/KT) (MB) (FT/S) (FT/S/D) BUOY 41004 2050 45 66 360/ 12/ 17 1023.5R 4/ 6 3/13 BUOY 41008 2050 47 54 40/ 10/ 14 1024.1R 4/ 6 3/ 60/ 6 FOLLY BEACH CMAN 2100 47 330/ 6/ 11 1024.7R CAPERS NEARSHORE 2000 47 360/ 6/ 8 N/A FRIPP NEARSHORE 2000 46 360/ 6/ 8 1023.3R STATION/POSITION TIME TEMP WIND PRES WAVE SWELL AIR SEA DIR/SP/G HT/PER HT/PER/DIR (UTC) (F) (DEG/KT/KT) (MB) (FT/S) (FT/S/D) 5E ST. MARYS GA 2022 57 N/A 4/ 6 2/ 90/13 FRYING PAN BUOY 2050 44 64 360/ 14/ 19 1023.3R 4/ 6 2/ 90/ 8 BUOY 41025 2050 40 68 340/ 19/ 23 1021.1R 7/10 5/ 40/10 CAPE LOOKOUT NC 2100 43 360/ 13/ 15 1022.2R BUOY 41002 2050 56 72 340/ 21/ 27 1017.7R 10/11 7/360/11 BUOY 41010 2020 63 76 350/ 19/ 23 1019.5R ST AUGUSTINE FL 2100 48 10/ 14/ 16 1024.5R $$

USA.gov is the U.S. government's official web portal to all federal, state and local government web resources and services.